TimeEDT,TemperatureF,Dew PointF,Humidity,Sea Level PressureIn,VisibilityMPH,Wind Direction,Wind SpeedMPH,Gust SpeedMPH,PrecipitationIn,Events,Conditions,WindDirDegrees,DateUTC
12:53 AM,64.0,53.1,67,29.99,10.0,SSW,6.9,-,N/A,,Clear,200,2012-10-25 04:53:00
1:53 AM,62.1,53.1,72,29.99,10.0,South,5.8,-,N/A,,Clear,190,2012-10-25 05:53:00
2:53 AM,61.0,52.0,72,29.98,10.0,South,5.8,-,N/A,,Clear,180,2012-10-25 06:53:00
3:53 AM,59.0,52.0,78,29.97,10.0,South,5.8,-,N/A,,Clear,180,2012-10-25 07:53:00
4:53 AM,60.1,52.0,75,29.96,10.0,South,5.8,-,N/A,,Clear,170,2012-10-25 08:53:00
5:53 AM,59.0,51.1,75,29.97,10.0,SSE,4.6,-,N/A,,Clear,160,2012-10-25 09:53:00
6:53 AM,57.9,51.1,78,29.98,10.0,SSE,5.8,-,N/A,,Clear,160,2012-10-25 10:53:00
7:53 AM,57.0,51.1,81,29.99,10.0,SSE,4.6,-,N/A,,Clear,160,2012-10-25 11:53:00
8:53 AM,59.0,52.0,78,30.00,10.0,South,6.9,-,N/A,,Clear,170,2012-10-25 12:53:00
10:53 AM,68.0,54.0,61,30.00,10.0,SSW,11.5,-,N/A,,Clear,200,2012-10-25 14:53:00
11:53 AM,72.0,55.9,57,29.97,10.0,SSW,13.8,20.7,N/A,,Clear,210,2012-10-25 15:53:00
12:53 PM,73.9,57.0,55,29.95,10.0,SSW,15.0,25.3,N/A,,Clear,200,2012-10-25 16:53:00
1:53 PM,75.0,55.9,51,29.92,10.0,South,17.3,23.0,N/A,,Partly Cloudy,190,2012-10-25 17:53:00
2:53 PM,77.0,54.0,45,29.90,10.0,SSW,15.0,25.3,N/A,,Clear,200,2012-10-25 18:53:00
4:53 PM,75.9,52.0,43,29.87,10.0,SSW,20.7,27.6,N/A,,Clear,200,2012-10-25 20:53:00
5:53 PM,75.0,52.0,44,29.87,10.0,South,11.5,-,N/A,,Clear,190,2012-10-25 21:53:00
6:53 PM,73.0,54.0,51,29.87,10.0,South,9.2,-,N/A,,Clear,180,2012-10-25 22:53:00
7:53 PM,70.0,54.0,57,29.88,10.0,South,8.1,-,N/A,,Clear,180,2012-10-25 23:53:00
8:53 PM,70.0,54.0,57,29.88,10.0,South,10.4,-,N/A,,Clear,190,2012-10-26 00:53:00
9:53 PM,69.1,54.0,58,29.88,10.0,South,11.5,-,N/A,,Clear,190,2012-10-26 01:53:00
10:53 PM,69.1,54.0,58,29.88,10.0,South,12.7,-,N/A,,Mostly Cloudy,190,2012-10-26 02:53:00
11:53 PM,68.0,53.1,59,29.88,10.0,South,11.5,-,N/A,,Overcast,190,2012-10-26 03:53:00